Aberdeen, SD

7:02 PM CDT on September 04, 2015 (GMT -0500)
St. Mary's Church | | Change Station
CLOSE
Current Station
Personal Weather Station
Location: Aberdeen, SD
Elevation: 1302 ft
Nearby Weather Stations

Elev 1302 ft 45.47 °N, 98.48 °W | Updated 4 seconds ago

Mostly Cloudy
Mostly Cloudy
86.7 °F
Feels Like 92 °F
N
1.1
Wind Variable Wind from SSE
Gusts 3.0 mph

Today
High -- | Low -- °F
--% Chance of Precip.
Yesterday
High -- | Low -- °F
Precip. -- in
6:58 AM 8:06 PM
Waning Gibbous, 54% visible
Pressure 29.75 in
Visibility 10.0 miles
Clouds Mostly Cloudy 6000 ft
Heat Index 92 °F
Dew Point 71 °F
Humidity 60%
Rainfall 0.02 in
Snow Depth Not available.
UV 0 out of 12
Pollen 11.00 out of 12
Air Quality Not available.
Flu Activity Not available.
METAR KABR 042353Z AUTO 13005KT 10SM BKN060 29/22 A2978 RMK AO2 SLP072 T02940217 10311 20272 53003
Pressure 29.75 in
Visibility 10.0 miles
Clouds Mostly Cloudy 6000 ft
Heat Index 92 °F
Dew Point 71 °F
Humidity 60%
Rainfall 0.02 in
Snow Depth Not available.
UV 0 out of 12
Pollen 11.00 out of 12
Air Quality Not available.
Flu Activity Not available.
METAR KABR 042353Z AUTO 13005KT 10SM BKN060 29/22 A2978 RMK AO2 SLP072 T02940217 10311 20272 53003

10-Day Weather Forecast

×

Almanac

Astronomy

Sep. 04, 2015 Rise Set
Actual Time
Civil Twilight
Nautical Twilight
Astronomical Twilight
Moon
Length of Visible Light
Length of Day
Tomorrow will be .
, % of the Moon is Illuminated

Today's Extremes

State Highs State Lows

Community

WunderPhotos

Upload Photos

1,852,345 photos uploaded!

WunderBlogs® & News

Nearby

Air Quality

  Air Quality AQ Index Pollutant
Not available.

Snow Depth

Station Depth Elevation

Earthquake Activity

City Distance Mag. Time & Date
Minimum magnitude displayed is 2.5.

Coastal Water Temperatures

Place Temperature

Stations

Nearby Weather Stations

Station Location Temp. Windchill Dew Point Humidity Wind Precip. Elev Updated Type